Weather in Valencia

Venezuela     10°09′52″N   67°59′32″W
temp.,
°C
wind,
m/s
gust,
m/s
humid.,
%
clouds,
%
prec.,
mm/h
press.,
hPa
HPBL,
m
28 june, tue
tue2823:00+20nnw1197100 0.0 101638
02:00+19nnw1197100 0.0 101417
05:00+19wnw0096100 0.1 101521
08:00+22sse1285100 0.2 1016222
11:00+26ese236439 0.8 10161190
14:00+27ne126599 2.5 10141130
17:00+25n117826 1.8 1013699
20:00+20nnw249856 3.4 1015141
29 june, wed
wed2923:00+20nnw239987 0.1 1017148
02:00+20nnw2397100 0.1 1015213
05:00+20nnw2295100 0.0 1015119
08:00+21n2595100 0.1 1015391
11:00+21n2395100 0.4 1015247
14:00+21nnw2386100 1.8 1013398
17:00+20sse1192100 0.3 1012163
20:00+19se1194100 0.3 101334
30 june, thu
thu3023:00+19s1195100 0.1 101518
02:00+19s129676 0.1 101328
05:00+19ssw22945 0.0 101332
08:00+21s248689 0.0 1014277
11:00+24se477452 0.2 1015991
14:00+24sse468290 1.8 1013899
17:00+22sse238598 0.3 1012318
20:00+20s119280 0.3 101319
1 july, fri
fri123:00+19ssw119226 0.0 101516
02:00+19ssw119551 0.0 101324
05:00+19ssw119651 0.0 101320
08:00+21s228631 0.0 1014189
11:00+26s336527 0.1 10141121
14:00+27sw346319 1.4 10121290
17:00+24ssw127984 2.5 1011653
20:00+20nnw119539 4.9 101316
2 july, sat
sat223:00+19nnw229797 0.0 101438
02:00+19nnw229824 0.1 101249
05:00+19wnw119822 0.0 101219
08:00+22s228899 0.0 1014176
11:00+26s456565 0.1 10131281
14:00+28s4557100 0.2 10111758
17:00+26s456338 0.1 10101260
20:00+21ssw229191 0.1 101347